Flag for Canada Weather past 2 weeks in Colchester County, Nova Scotia, Canada

Now
66 °F

Drizzle. Fog.


Feels Like: 66 °F
Forecast: 64 / 80 °F
Wind: 12 mph from South

Location: Halifax International Airport

Current Time: Jul 29, 2014 at 5:54:49 AM

Latest Report: Jul 29, 2014 at 5:00 AM


Visibility: 1 mi

Pressure: 29.72 "Hg

Humidity: 94%

Dew point: 64 °F

Location of Colchester CountyLocation

Historic Weather in Colchester County — Graph

°F

Colchester County temperature yesterday

Maximum temperature yesterday: 77 °F (at 2:00 PM)
Minimum temperature yesterday: 63 °F (at 12:00 AM)
Average temperature yesterday: 68 °F

Past Weeks' High & Low Weather Summary

 TemperatureHumidityPressure
High81 °F (Jul 19, 5:00 PM)100% (Jul 14, 11:00 PM)30.28 "Hg (Jul 14, 11:00 PM)
Low57 °F (Jul 14, 5:00 AM)39% (Jul 18, 3:00 PM)29.71 "Hg (Jul 29, 1:00 AM)
Average67 °F83%29.98 "Hg
* Reported Jul 14 4:00 AM — Jul 29 4:00 AM, Colchester County, Weather by CustomWeather, © 2014

Note: Actual official high and low records may vary slightly from our data, if they occured in-between our weather recording intervals... More about our weather records

Advertising

Colchester County weather history for previous 24 hours

 ConditionsComfort  
Time TempWeatherWind HumidityBarometerVisibility
4:00 AM
Jul 29
66 °FDrizzle. Mostly cloudy.15 mph88%29.71 "Hg10 mi
3:00 AM68 °FLow clouds.12 mph88%29.71 "Hg10 mi
2:00 AM68 °FFog.13 mph94%29.72 "Hg3 mi
1:00 AM68 °FFog.13 mph94%29.71 "Hg1 mi
12:00 AM68 °FMild.10 mph100%29.73 "Hg1 mi
11:00 PM
Jul 28
68 °FSprinkles. Fog.13 mph100%29.75 "Hg1 mi
10:53 PM68 °FFog.13 mph100%29.75 "Hg1 mi
10:00 PM70 °FFog.12 mph100%29.75 "Hg0 mi
9:00 PM68 °FFog.10 mph100%29.77 "Hg0 mi
8:00 PM68 °FFog.14 mph100%29.80 "Hg1 mi
7:00 PM68 °FFog.13 mph100%29.80 "Hg1 mi
6:00 PM70 °FFog.8 mph94%29.81 "Hg1 mi
5:00 PM73 °FMostly cloudy.8 mph89%29.83 "Hg10 mi
4:00 PM73 °FMostly cloudy.10 mph89%29.83 "Hg10 mi
3:51 PM73 °FMostly cloudy.12 mph89%29.83 "Hg8 mi
3:00 PM73 °FOvercast.14 mph89%29.84 "Hg15 mi
2:00 PM77 °FPartly sunny.12 mph83%29.84 "Hg15 mi
1:00 PM73 °FLow clouds.12 mph89%29.84 "Hg12 mi
12:52 PM72 °FFog.9 mph94%29.85 "Hg6 mi
12:00 PM70 °FFog.13 mph100%29.85 "Hg1 mi
11:00 AM70 °FFog.12 mph94%29.86 "Hg1 mi
10:00 AM68 °FMild.13 mph100%29.86 "Hg0 mi
9:51 AM68 °FSprinkles. Fog.13 mph100%29.85 "Hg1 mi
9:00 AM68 °FMild.12 mph94%29.86 "Hg0 mi
8:54 AM68 °FFog.13 mph94%29.85 "Hg0 mi
8:04 AM66 °FSprinkles. Fog.9 mph94%29.86 "Hg1 mi
7:55 AM66 °FSprinkles. Fog.10 mph94%29.87 "Hg0 mi
7:00 AM64 °FFog.9 mph100%29.86 "Hg0 mi
6:00 AM64 °FFog.8 mph100%29.86 "Hg0 mi
5:00 AM64 °FFog.10 mph100%29.86 "Hg0 mi
Weather by CustomWeather, © 2014

See weather overviewHow to use our weather pages